"Pseudo-MPEC" for P10QApH

Created 2019 Aug 14 12:07:07 UT using Find_Orb

Click here for an explanation of pseudo-MPECs

 
 Astrometry: 
     P10QApH  C2019 07 27bSx:3wP=@p$%i,2sOalEof_Astrometry^+5+0aGc`aQ7W[TxR2WF51
     P10QApH  C2019 07 27usioH_Vn*%ZC?XIP@redacted;pmZ1xKhZYclick@fkwad@0g%g[F51
     P10QApH  C2019 07 27cFp,d5?g?973MHexkEW1eHcMg)]Tc$iLhere%_3iOR1nkH[KGpFMF51
     P10QApH  C2019 08 10M2O69tPJ]Un/4-B#\NhQs727b3-$Z4+Fdv_p5+-DypX,m6CA$t;oF51
     P10QApH  C2019 08 10`,forWtn5.(AexplanationTl=mMg(Xt'1j9q7O:Y.ht#OZ5#NJeF51
     P10QApH  C2019 08 10Wk?Ib2P)n.WOsik9r+rNF^#'sZUCEfij+*@5R)l(nqGbi-ZJ['.8F51
     P10QApH ^C2019 08 12.34445821 15 31.355+25 14 51.36   ~8C97 21.90GVNEOCP568
     P10QApH ^C2019 08 12.34600621 15 31.207+25 14 51.96   ~8C97 21.93GVNEOCP568
     P10QApH ^C2019 08 12.34755621 15 31.059+25 14 52.55   ~8C97 22.00GVNEOCP568

Station data:
(568) Mauna Kea  (N19.826116 W155.472200)  US/Hawaii.
(F51) Pan-STARRS 1, Haleakala  (N20.707235 W156.255910)  US/Hawaii.
   Observers N. Primak, A. Schultz, S. Watters, J. Thiel, T. Goggia. Measurer
   PS1 Science Consortium. 1.8-m Ritchey-Chrétien + CCD.

Orbital elements:  P10QApH
   Perihelion 2018 Oct 7.176040 +/- 1.46 TT =  4:13:29 (JD 2458398.676040)
Epoch 2019 Aug 12.0 TT = JDT 2458707.5   Earth MOID: 0.7503   AutoNEOCP
M 123.31992746 +/- 0.6              (J2000 ecliptic)
n   0.39932111 +/- 0.000498         Peri.  282.26884 +/- 0.57
a   1.82636622 +/- 0.00152          Node   274.23868 +/- 0.055
e   0.0791519 +/- 0.000403          Incl.   24.96940 +/- 0.031
P   2.47/901.51d           H 19.9   G  0.15   U  7.7  
q 1.68180570 +/- 0.0008    Q 1.97092674 +/- 0.00233
From 9 observations 2019 July 27-Aug. 12; mean residual 0".09
Residuals in arcseconds: 
190727 F51  .19-  .06+    190810 F51  .04+  .10-    190812 568  .01+  .00     
190727 F51  .07+  .08+    190810 F51  .10+  .02+    190812 568  .00   .00     
190727 F51  .12+  .14-    190810 F51  .14-  .08+    190812 568  .01-  .00     

Ephemerides (geocentric):
Date (UTC) HH   RA              Dec         delta   r     elong  mag " sig PA
---- -- -- --  -------------   -----------  ------ ------ -----  --- ---- ---
2019 08 14 12  21 12 13.411   +25 26 50.61  1.0266 1.9152 139.8 22.4 .712  26
2019 08 14 13  21 12 09.602   +25 27 02.90  1.0267 1.9152 139.8 22.4 .724  26
2019 08 14 14  21 12 05.793   +25 27 15.13  1.0267 1.9152 139.8 22.4 .735  26
2019 08 14 15  21 12 01.985   +25 27 27.30  1.0267 1.9153 139.8 22.4 .747  26
2019 08 14 16  21 11 58.177   +25 27 39.41  1.0268 1.9153 139.8 22.4 .759  25
2019 08 14 17  21 11 54.370   +25 27 51.46  1.0268 1.9153 139.8 22.4 .771  25
2019 08 14 18  21 11 50.564   +25 28 03.44  1.0268 1.9153 139.8 22.4 .783  25
2019 08 14 19  21 11 46.758   +25 28 15.37  1.0268 1.9154 139.8 22.4 .795  25
2019 08 14 20  21 11 42.953   +25 28 27.23  1.0269 1.9154 139.8 22.4 .807  25
2019 08 14 21  21 11 39.148   +25 28 39.04  1.0269 1.9154 139.8 22.4 .819  25
2019 08 14 22  21 11 35.344   +25 28 50.78  1.0269 1.9155 139.8 22.4 .831  25
2019 08 14 23  21 11 31.541   +25 29 02.46  1.0270 1.9155 139.8 22.4 .843  25
2019 08 15 00  21 11 27.739   +25 29 14.08  1.0270 1.9155 139.8 22.4 .855  25
2019 08 15 01  21 11 23.937   +25 29 25.64  1.0270 1.9156 139.8 22.4 .868  25
2019 08 15 02  21 11 20.136   +25 29 37.13  1.0271 1.9156 139.8 22.4 .880  25
2019 08 15 03  21 11 16.335   +25 29 48.57  1.0271 1.9156 139.8 22.4 .892  25
2019 08 15 04  21 11 12.536   +25 29 59.95  1.0271 1.9157 139.8 22.4 .905  25
2019 08 15 05  21 11 08.737   +25 30 11.26  1.0272 1.9157 139.8 22.4 .917  25
2019 08 15 06  21 11 04.938   +25 30 22.51  1.0272 1.9157 139.8 22.4 .929  25
2019 08 15 07  21 11 01.141   +25 30 33.71  1.0272 1.9158 139.8 22.4 .942  25
2019 08 15 08  21 10 57.344   +25 30 44.84  1.0272 1.9158 139.8 22.4 .954  25
2019 08 15 09  21 10 53.548   +25 30 55.91  1.0273 1.9158 139.8 22.4 .967  25
2019 08 15 10  21 10 49.753   +25 31 06.92  1.0273 1.9159 139.8 22.4 .980  25
2019 08 15 11  21 10 45.958   +25 31 17.87  1.0273 1.9159 139.8 22.4 0.99  25
2019 08 15 12  21 10 42.164   +25 31 28.75  1.0274 1.9159 139.8 22.4 1.01  25
2019 08 15 13  21 10 38.371   +25 31 39.58  1.0274 1.9159 139.8 22.4 1.02  25
2019 08 15 14  21 10 34.579   +25 31 50.35  1.0275 1.9160 139.8 22.4 1.03  25
2019 08 15 15  21 10 30.788   +25 32 01.05  1.0275 1.9160 139.8 22.4 1.04  25
2019 08 15 16  21 10 26.997   +25 32 11.69  1.0275 1.9160 139.8 22.4 1.06  24
2019 08 15 17  21 10 23.207   +25 32 22.28  1.0276 1.9161 139.8 22.4 1.07  24
2019 08 15 18  21 10 19.419   +25 32 32.80  1.0276 1.9161 139.8 22.4 1.08  24
2019 08 15 19  21 10 15.630   +25 32 43.26  1.0276 1.9161 139.8 22.4 1.10  24
2019 08 15 20  21 10 11.843   +25 32 53.66  1.0277 1.9162 139.8 22.4 1.11  24
2019 08 15 21  21 10 08.057   +25 33 04.00  1.0277 1.9162 139.8 22.4 1.12  24
2019 08 15 22  21 10 04.271   +25 33 14.28  1.0277 1.9162 139.8 22.4 1.13  24
2019 08 15 23  21 10 00.487   +25 33 24.50  1.0278 1.9163 139.8 22.4 1.15  24
2019 08 16 00  21 09 56.703   +25 33 34.66  1.0278 1.9163 139.8 22.4 1.16  24
2019 08 16 01  21 09 52.920   +25 33 44.75  1.0279 1.9163 139.8 22.4 1.17  24
2019 08 16 02  21 09 49.138   +25 33 54.79  1.0279 1.9164 139.8 22.4 1.19  24
2019 08 16 03  21 09 45.357   +25 34 04.76  1.0279 1.9164 139.8 22.4 1.20  24
2019 08 16 04  21 09 41.577   +25 34 14.68  1.0280 1.9164 139.8 22.4 1.21  24
2019 08 16 05  21 09 37.798   +25 34 24.53  1.0280 1.9164 139.8 22.4 1.23  24
2019 08 16 06  21 09 34.020   +25 34 34.33  1.0281 1.9165 139.8 22.4 1.24  24
2019 08 16 07  21 09 30.242   +25 34 44.06  1.0281 1.9165 139.8 22.4 1.25  24
2019 08 16 08  21 09 26.466   +25 34 53.73  1.0281 1.9165 139.8 22.4 1.27  24
2019 08 16 09  21 09 22.691   +25 35 03.34  1.0282 1.9166 139.8 22.4 1.28  24
2019 08 16 10  21 09 18.916   +25 35 12.89  1.0282 1.9166 139.8 22.4 1.30  24
2019 08 16 11  21 09 15.143   +25 35 22.38  1.0283 1.9166 139.8 22.4 1.31  24